EW5797 Weather Reports


time (UTC)temp
C
wind
direction
speed
KPH
gust
KPH
rain 1hr
cm
rain 24hr
cm
rain mn
cm
humidity
%
barometer
mb
20260504214203 24 224 3.2 8.0 0.00 0.00 0.00 42 1013.4
20260504213703 24 275 3.2 9.7 0.00 0.00 0.00 44 1013.4
20260504213203 24 285 3.2 9.7 0.00 0.00 0.00 43 1013.4
20260504212703 24 272 4.8 12.9 0.00 0.00 0.00 42 1013.5
20260504212203 24 297 3.2 9.7 0.00 0.00 0.00 40 1013.4
20260504211702 24 303 3.2 8.0 0.00 0.00 0.00 43 1013.5
20260504211203 24 270 1.6 14.5 0.00 0.00 0.00 43 1013.5
20260504210702 24 281 4.8 9.7 0.00 0.00 0.00 42 1013.5
20260504210203 24 193 3.2 14.5 0.00 0.00 0.00 42 1013.5
20260504205703 23 1 4.8 12.9 0.00 0.00 0.00 46 1013.6
20260504204203 23 180 4.8 12.9 0.00 0.00 0.00 41 1013.8
20260504203702 23 214 3.2 11.3 0.00 0.00 0.00 43 1013.8
20260504203203 23 159 3.2 14.5 0.00 0.00 0.00 45 1013.9
20260504202703 23 235 4.8 14.5 0.00 0.00 0.00 45 1014.0
20260504202203 23 305 3.2 12.9 0.00 0.00 0.00 47 1014.1
20260504201702 23 279 4.8 14.5 0.00 0.00 0.00 47 1014.0
20260504200703 23 203 3.2 8.0 0.00 0.00 0.00 46 1014.1
20260504200203 23 265 3.2 19.3 0.00 0.00 0.00 50 1014.3
20260504195203 23 161 3.2 20.9 0.00 0.00 0.00 47 1014.5
20260504194703 23 243 3.2 9.7 0.00 0.00 0.00 47 1014.6
20260504193703 22 45 4.8 9.7 0.00 0.00 0.00 47 1014.8
20260504193203 22 46 1.6 9.7 0.00 0.00 0.00 50 1014.9
20260504192203 23 328 3.2 12.9 0.00 0.00 0.00 50 1015.2
20260504191703 23 254 3.2 12.9 0.00 0.00 0.00 52 1015.3
20260504191203 22 228 4.8 19.3 0.00 0.00 0.00 49 1015.3
20260504190702 22 238 4.8 9.7 0.00 0.00 0.00 48 1015.4
20260504190203 22 317 4.8 11.3 0.00 0.00 0.00 47 1015.6
20260504185703 22 303 1.6 11.3 0.00 0.00 0.00 45 1015.6
20260504185202 22 190 4.8 8.0 0.00 0.00 0.00 51 1015.7
20260504184703 22 177 8.0 19.3 0.00 0.00 0.00 47 1015.7
20260504184203 22 130 3.2 9.7 0.00 0.00 0.00 48 1015.9
20260504183703 22 256 4.8 14.5 0.00 0.00 0.00 48 1015.9
20260504183203 22 246 3.2 14.5 0.00 0.00 0.00 45 1016.0
20260504182702 22 282 4.8 14.5 0.00 0.00 0.00 48 1016.0
20260504182203 21 286 6.4 12.9 0.00 0.00 0.00 46 1016.1
20260504181703 22 281 4.8 14.5 0.00 0.00 0.00 47 1016.2
20260504181203 22 170 4.8 14.5 0.00 0.00 0.00 48 1016.2
20260504180703 22 207 4.8 12.9 0.00 0.00 0.00 48 1016.2
20260504180203 22 278 3.2 16.1 0.00 0.00 0.00 46 1016.3
20260504175703 21 254 3.2 12.9 0.00 0.00 0.00 48 1016.4
20260504175203 22 268 4.8 16.1 0.00 0.00 0.00 48 1016.5
20260504174702 21 253 3.2 11.3 0.00 0.00 0.00 47 1016.4
20260504173703 21 291 4.8 14.5 0.00 0.00 0.00 48 1016.4
20260504173203 20 267 3.2 12.9 0.00 0.00 0.00 49 1016.5
20260504172703 20 130 3.2 9.7 0.00 0.00 0.00 50 1016.5
20260504172203 20 157 3.2 9.7 0.00 0.00 0.00 49 1016.6
20260504171703 20 259 3.2 12.9 0.00 0.00 0.00 49 1016.6
20260504170703 19 319 1.6 4.8 0.00 0.00 0.00 50 1016.8
20260504150703 15 5 3.2 8.0 0.00 0.00 0.00 65 1019.2
20260504150203 14 177 1.6 4.8 0.00 0.00 0.00 63 1019.4
20260504141203 11 175 1.6 4.8 0.00 0.00 0.00 72 1019.7
20260504140203 11 35 1.6 4.8 0.00 0.00 0.00 76 1019.9
20260504130703 8 33 1.6 4.8 0.00 0.00 0.00 85 1018.9
20260504130203 7 48 1.6 4.8 0.00 0.00 0.00 86 1018.9
20260504120203 5 335 1.6 3.2 0.00 0.00 0.00 92 1018.1
20260504110703 3 51 1.6 3.2 0.00 0.00 0.00 90 1017.2
20260504110203 3 312 1.6 3.2 0.00 0.00 0.00 90 1017.3
20260504100203 3 320 0.0 1.6 0.00 0.00 0.00 87 1017.9
20260504081703 4 259 0.0 1.6 0.00 0.00 0.00 84 1018.0
20260504081203 5 321 0.0 1.6 0.00 0.00 0.00 85 1018.0
20260504080703 5 304 1.6 1.6 0.00 0.00 0.00 85 1018.1
20260504080203 5 25 1.6 3.2 0.00 0.00 0.00 85 1018.0
20260504060203 5 312 1.6 1.6 0.00 0.00 0.00 79 1018.2
20260504050704 6 131 0.0 1.6 0.00 0.00 0.00 75 1018.2
20260504045704 6 165 1.6 3.2 0.00 0.00 0.00 74 1018.1
20260504044704 7 184 1.6 3.2 0.00 0.00 0.00 74 1018.2
20260504044204 7 200 1.6 3.2 0.00 0.00 0.00 73 1018.1
20260504043703 7 158 1.6 3.2 0.00 0.00 0.00 72 1018.1
20260504043203 7 167 1.6 3.2 0.00 0.00 0.00 71 1018.1
20260504042703 7 233 0.0 3.2 0.00 0.00 0.00 70 1018.0
20260504041203 7 211 1.6 3.2 0.00 0.00 0.00 69 1017.9
20260504040703 7 195 0.0 3.2 0.00 0.00 0.00 69 1017.9
20260504040203 7 317 1.6 1.6 0.00 0.00 0.00 68 1017.8
20260504035703 7 161 1.6 3.2 0.00 0.00 0.00 68 1017.9
20260504035203 8 297 0.0 1.6 0.00 0.00 0.00 68 1018.0
20260504034703 8 322 0.0 1.6 0.00 0.00 0.00 67 1017.9
20260504034203 8 32 0.0 1.6 0.00 0.00 0.00 67 1018.0
20260504033203 8 342 0.0 1.6 0.00 0.00 0.00 67 1017.7
20260504032203 8 113 0.0 1.6 0.00 0.00 0.00 64 1017.8
20260504031703 8 130 0.0 3.2 0.00 0.00 0.00 63 1017.8
20260504031204 8 287 0.0 1.6 0.00 0.00 0.00 63 1017.6
20260504030703 8 129 1.6 1.6 0.00 0.00 0.00 61 1017.6
20260504030203 8 296 0.0 1.6 0.00 0.00 0.00 61 1017.7
20260504025704 9 310 0.0 1.6 0.00 0.00 0.00 60 1017.8
20260504025204 9 218 0.0 1.6 0.00 0.00 0.00 60 1017.7
20260504024203 9 81 0.0 1.6 0.00 0.00 0.00 60 1017.7
20260504023704 10 7 1.6 3.2 0.00 0.00 0.00 59 1017.7
20260504022704 10 144 1.6 3.2 0.00 0.00 0.00 57 1017.6
20260504022204 10 138 1.6 3.2 0.00 0.00 0.00 57 1017.5
20260504021703 10 144 1.6 3.2 0.00 0.00 0.00 55 1017.6
20260504021203 10 276 0.0 1.6 0.00 0.00 0.00 56 1017.6
20260504020703 10 318 0.0 1.6 0.00 0.00 0.00 56 1017.6
20260504020203 10 312 1.6 1.6 0.00 0.00 0.00 55 1017.6
20260504015203 10 124 1.6 3.2 0.00 0.00 0.00 54 1017.3
20260504014203 10 141 0.0 1.6 0.00 0.00 0.00 55 1017.5
20260504013703 11 129 1.6 3.2 0.00 0.00 0.00 51 1017.5
20260504013203 11 155 1.6 3.2 0.00 0.00 0.00 53 1017.6
20260504012204 11 345 0.0 3.2 0.00 0.00 0.00 52 1017.6
20260504011703 12 186 1.6 1.6 0.00 0.00 0.00 52 1017.5
20260504011204 12 281 0.0 1.6 0.00 0.00 0.00 50 1017.5
20260504010704 12 126 0.0 1.6 0.00 0.00 0.00 50 1017.5
20260504010204 12 307 1.6 3.2 0.00 0.00 0.00 49 1017.5
20260504005704 13 125 1.6 1.6 0.00 0.00 0.00 49 1017.2
20260504004703 13 139 1.6 3.2 0.00 0.00 0.00 45 1017.1
20260504004204 13 73 0.0 1.6 0.00 0.00 0.00 45 1017.1
20260504003704 14 133 1.6 3.2 0.00 0.00 0.00 43 1017.1
20260504002703 14 142 1.6 3.2 0.00 0.00 0.00 42 1016.9
20260504001704 15 158 1.6 3.2 0.00 0.00 0.00 40 1016.8
20260504001203 15 164 1.6 8.0 0.00 0.00 0.00 39 1016.7
20260504000703 15 292 3.2 8.0 0.00 0.00 0.00 40 1016.8
20260504000204 15 265 3.2 4.8 0.00 0.00 0.00 40 1016.8
20260503235704 15 233 3.2 8.0 0.00 0.00 0.00 39 1016.9
20260503234704 16 212 1.6 4.8 0.00 0.00 0.00 38 1016.9
20260503234204 16 288 3.2 8.0 0.00 0.00 0.00 38 1016.8
20260503233704 16 189 3.2 8.0 0.00 0.00 0.00 37 1016.9
20260503233203 16 207 1.6 8.0 0.00 0.00 0.00 36 1017.0
20260503232703 16 269 3.2 11.3 0.00 0.00 0.00 36 1017.1
20260503232203 17 239 3.2 9.7 0.00 0.00 0.00 37 1017.0
20260503231203 17 268 3.2 9.7 0.00 0.00 0.00 36 1017.0
20260503230204 17 274 1.6 4.8 0.00 0.00 0.00 36 1017.0
20260503225203 17 253 3.2 11.3 0.00 0.00 0.00 36 1017.1
20260503224703 17 276 4.8 14.5 0.00 0.00 0.00 38 1017.1
20260503224203 17 192 4.8 19.3 0.00 0.00 0.00 36 1017.1
20260503223703 17 284 1.6 11.3 0.00 0.00 0.00 35 1017.2
20260503223203 17 276 3.2 16.1 0.00 0.00 0.00 35 1017.3
20260503222704 17 212 3.2 11.3 0.00 0.00 0.00 34 1017.3
20260503222204 17 267 3.2 11.3 0.00 0.00 0.00 34 1017.4
20260503221704 17 206 3.2 11.3 0.00 0.00 0.00 35 1017.4
20260503221203 17 210 4.8 14.5 0.00 0.00 0.00 35 1017.4
20260503220703 17 212 3.2 9.7 0.00 0.00 0.00 38 1017.5
20260503215703 17 195 4.8 8.0 0.00 0.00 0.00 36 1017.5
20260503215203 17 273 4.8 9.7 0.00 0.00 0.00 35 1017.5
20260503214704 17 242 3.2 11.3 0.00 0.00 0.00 35 1017.5